"Period start","avg(HW err(1)/warn(2) (#))","avg(Visibility (m))","avg(Weather code (#))","avg(Precip intensity (mm/h))","min(HW err(1)/warn(2) (#))","max(HW err(1)/warn(2) (#))","std(HW err(1)/warn(2) (#))","med(HW err(1)/warn(2) (#))","min(Visibility (m))","max(Visibility (m))","std(Visibility (m))","med(Visibility (m))","min(Weather code (#))","max(Weather code (#))","std(Weather code (#))","med(Weather code (#))","min(Precip intensity (mm/h))","max(Precip intensity (mm/h))","std(Precip intensity (mm/h))","med(Precip intensity (mm/h))"
2016-07-30 00:00:00,0,47984,23,0.20,0,0,0,0,43713,50000,2297,49104,0,61,29,0,0.00,1.30,0.42,0.00
2016-07-30 00:10:00,0,48125,0,0.00,0,0,0,0,42113,50000,2390,49176,0,0,0,0,0.00,0.00,0.00,0.00
2016-07-30 00:20:00,0,43997,0,0.00,0,0,0,0,26996,50000,6512,45969,0,0,0,0,0.00,0.00,0.00,0.00
2016-07-30 00:30:00,0,35181,61,2.23,0,0,0,0,21247,47954,8109,33637,61,61,0,61,0.10,7.55,1.99,1.58
2016-07-30 00:40:00,0,24470,61,9.46,0,0,0,0,17057,37445,6536,23592,61,62,0,61,1.00,21.55,7.19,7.97
2016-07-30 00:50:00,0,23266,62,15.24,0,0,0,0,15416,47209,9249,19822,61,62,0,62,6.55,23.95,6.48,15.95
2016-07-30 01:00:00,0,15820,62,25.55,0,0,0,0,10458,20343,3198,14958,62,63,0,62,15.50,41.20,8.60,22.90
2016-07-30 01:10:00,0,11848,62,16.20,0,0,0,0,10106,16682,1859,11170,62,62,0,62,12.15,21.25,3.15,14.55
2016-07-30 01:20:00,0,25472,61,6.96,0,0,0,0,16542,37009,6314,25492,61,62,0,61,3.30,14.05,3.15,6.05
2016-07-30 01:30:00,0,16363,62,11.72,0,0,0,0,13149,20679,2426,15312,61,62,0,62,8.20,18.90,2.88,11.88
2016-07-30 01:40:00,0,20395,62,11.61,0,0,0,0,12968,40252,7565,18460,61,62,0,62,3.75,20.75,5.97,11.38
2016-07-30 01:50:00,0,20195,62,11.79,0,0,0,0,13325,29698,5735,20125,61,62,0,62,4.00,20.00,5.37,11.95
2016-07-30 02:00:00,0,44015,61,1.73,0,0,0,0,26780,50000,7111,46041,61,61,0,61,0.00,5.10,1.99,0.82
2016-07-30 02:10:00,0,24224,61,6.17,0,0,0,0,18829,33699,4542,22696,61,62,0,61,2.55,12.55,3.08,5.65
2016-07-30 02:20:00,0,24767,61,8.98,0,0,0,0,15885,40418,6751,23208,61,62,0,61,4.15,14.55,3.40,8.05
2016-07-30 02:30:00,0,19633,61,9.88,0,0,0,0,13698,27300,4796,18398,61,62,0,61,4.30,16.45,3.85,9.10
2016-07-30 02:40:00,0,22962,61,5.29,0,0,0,0,17876,30984,3764,22030,61,61,0,61,2.35,7.70,1.69,5.45
2016-07-30 02:50:00,0,45140,30,0.29,0,0,0,0,25313,50000,7752,49746,0,61,30,30,0.00,1.20,0.45,0.00
2016-07-30 03:00:00,0,49524,0,0.00,0,0,0,0,46580,50000,996,49909,0,0,0,0,0.00,0.00,0.00,0.00
2016-07-30 03:10:00,0,42470,0,0.00,0,0,0,0,28844,50000,7436,45209,0,0,0,0,0.00,0.00,0.00,0.00
2016-07-30 03:20:00,0,36761,6,0.00,0,0,0,0,25496,50000,8890,34664,0,61,18,0,0.00,0.00,0.00,0.00
2016-07-30 03:30:00,0,34566,61,1.59,0,0,0,0,26231,46760,6049,34105,61,61,0,61,0.65,2.80,0.62,1.55
2016-07-30 03:40:00,0,35766,58,2.19,0,0,0,0,25260,41874,5576,38055,52,61,4,61,0.65,4.65,1.25,1.98
2016-07-30 03:50:00,0,23420,61,5.78,0,0,0,0,18890,32638,4327,21831,61,61,0,61,2.45,7.70,1.57,6.22
2016-07-30 04:00:00,0,16129,61,9.60,0,0,0,0,11575,21148,2694,16276,61,62,0,61,6.65,16.20,2.81,9.07
2016-07-30 04:10:00,0,16529,61,5.31,0,0,0,0,13947,21285,2057,16232,61,61,0,61,2.65,7.65,1.42,5.28
2016-07-30 04:20:00,0,22463,61,2.77,0,0,0,0,15703,39137,6486,20196,61,61,0,61,2.25,4.20,0.56,2.52
2016-07-30 04:30:00,0,24099,58,1.35,0,0,0,0,16415,28529,3667,23937,51,61,4,61,0.15,2.85,0.88,0.98
2016-07-30 04:40:00,0,28820,30,0.09,0,0,0,0,22474,42614,6388,27454,0,61,25,41,0.00,0.30,0.11,0.05
2016-07-30 04:50:00,0,39010,0,0.00,0,0,0,0,31205,46826,4430,40217,0,0,0,0,0.00,0.00,0.00,0.00
2016-07-30 05:00:00,0,38723,0,0.00,0,0,0,0,28412,46916,5542,39292,0,0,0,0,0.00,0.00,0.00,0.00
2016-07-30 05:10:00,0,33025,0,0.00,0,0,0,0,24863,44586,5310,31836,0,0,0,0,0.00,0.00,0.00,0.00
2016-07-30 05:20:00,0,36474,0,0.00,0,0,0,0,25837,42857,5509,38002,0,0,0,0,0.00,0.00,0.00,0.00
2016-07-30 05:30:00,0,41810,0,0.00,0,0,0,0,31870,48063,4744,43232,0,0,0,0,0.00,0.00,0.00,0.00
2016-07-30 05:40:00,0,48626,18,0.04,0,0,0,0,44791,50000,1788,49845,0,61,28,0,0.00,0.25,0.08,0.00
2016-07-30 05:50:00,0,45375,55,0.12,0,0,0,0,37276,50000,4505,45590,51,61,5,51,0.05,0.25,0.06,0.12
2016-07-30 06:00:00,0,33550,54,1.77,0,0,0,0,17366,50000,12952,25725,51,61,4,52,0.05,4.30,1.40,1.88
2016-07-30 06:10:00,0,9824,56,13.08,0,0,0,0,3471,20972,5686,8136,52,62,5,52,2.45,29.30,10.79,6.73
2016-07-30 06:20:00,0,4849,62,22.21,0,0,0,0,3016,7436,1186,4728,61,63,0,62,8.90,55.80,13.05,18.50
2016-07-30 06:30:00,0,9202,61,4.89,0,0,0,0,7311,13235,1897,8528,61,61,0,61,1.50,9.40,2.25,4.83
2016-07-30 06:40:00,0,13511,61,2.44,0,0,0,0,11571,16708,1473,13420,61,61,0,61,1.05,4.75,1.07,2.17
2016-07-30 06:50:00,0,12446,59,4.21,0,0,0,0,8180,19617,3263,12593,52,61,4,61,1.30,7.05,2.06,3.58
2016-07-30 07:00:00,0,7840,61,8.11,0,0,0,0,5732,9783,1130,7611,61,62,0,61,4.20,14.15,3.53,7.08
2016-07-30 07:10:00,0,6785,61,7.86,0,0,0,0,2867,9232,2173,7578,61,62,0,61,2.10,18.85,5.43,5.65
2016-07-30 07:20:00,0,10272,61,1.77,0,0,0,0,6508,13317,2120,10477,61,61,0,61,0.55,7.60,2.03,1.05
2016-07-30 07:30:00,0,8895,58,1.56,0,0,0,0,7601,10397,904,8624,52,61,4,61,1.00,2.25,0.43,1.50
2016-07-30 07:40:00,0,9576,61,1.96,0,0,0,0,8302,11814,1067,9264,61,61,0,61,0.85,3.30,0.86,1.83
2016-07-30 07:50:00,0,4330,61,6.90,0,0,0,0,3102,7325,1550,3566,61,62,0,61,3.55,10.90,2.06,6.33
2016-07-30 08:00:00,0,4003,61,7.37,0,0,0,0,2896,5910,991,3790,61,62,0,61,3.15,10.50,2.34,7.83
2016-07-30 08:10:00,0,6202,62,16.88,0,0,0,0,5266,7701,788,5938,61,63,1,62,4.30,43.00,11.22,13.15
2016-07-30 08:20:00,0,4995,62,35.84,0,0,0,0,3671,6555,947,4706,62,63,0,62,15.10,47.25,8.35,36.70
2016-07-30 08:30:00,0,4749,62,37.91,0,0,0,0,2849,6812,1447,4557,62,63,0,62,13.45,81.15,22.62,24.78
2016-07-30 08:40:00,0,3924,63,49.65,0,0,0,0,2623,5596,1000,3736,62,63,0,63,20.35,128.75,29.86,46.10
2016-07-30 08:50:00,0,4091,63,62.86,0,0,0,0,3238,5403,761,4056,62,63,0,63,24.55,97.75,22.71,65.97
2016-07-30 09:00:00,0,5381,62,39.09,0,0,0,0,4250,6784,768,5145,62,63,0,62,18.50,60.35,12.63,38.10
2016-07-30 09:10:00,0,8719,62,18.68,0,0,0,0,6943,11164,1302,8274,62,62,0,62,14.55,23.90,2.92,18.10
2016-07-30 09:20:00,0,11014,62,12.98,0,0,0,0,8209,12982,1622,11906,61,62,0,62,7.90,20.15,3.85,12.60
2016-07-30 09:30:00,0,11223,61,10.87,0,0,0,0,8939,13579,1627,11252,61,62,0,61,3.75,20.80,5.21,9.70
2016-07-30 09:40:00,0,12888,62,13.91,0,0,0,0,10805,15672,1474,12637,61,62,0,62,6.70,22.35,4.72,14.18
2016-07-30 09:50:00,0,15466,62,9.42,0,0,0,0,13207,24792,3293,14122,61,62,0,62,4.05,13.60,3.27,10.40
2016-07-30 10:00:00,0,19329,61,6.42,0,0,0,0,10176,37765,8868,15158,61,62,0,61,1.50,12.35,3.76,5.55
2016-07-30 10:10:00,0,31632,56,0.53,0,0,0,0,21199,49368,8052,31554,51,61,5,56,0.30,1.15,0.27,0.42
2016-07-30 10:20:00,0,45814,54,0.47,0,0,0,0,33652,50000,5093,47946,51,61,5,51,0.10,1.05,0.35,0.40
2016-07-30 10:30:00,0,49148,42,0.08,0,0,0,0,46037,50000,1388,50000,0,61,21,51,0.00,0.20,0.08,0.05
2016-07-30 10:40:00,0,50000,0,0.00,0,0,0,0,50000,50000,0,50000,0,0,0,0,0.00,0.00,0.00,0.00
2016-07-30 10:50:00,0,49946,0,0.00,0,0,0,0,49462,50000,161,50000,0,0,0,0,0.00,0.00,0.00,0.00
2016-07-30 11:00:00,0,36325,41,0.58,0,0,0,0,7042,50000,14582,40054,0,61,27,56,0.00,3.10,1.03,0.03
2016-07-30 11:10:00,0,44861,30,1.00,0,0,0,0,34942,50000,5820,48292,0,61,30,30,0.00,5.90,1.75,0.10
2016-07-30 11:20:00,0,17629,49,9.10,0,0,0,0,6070,50000,16294,9149,0,62,25,61,0.00,30.50,10.17,3.88
2016-07-30 11:30:00,0,37267,18,0.01,0,0,0,0,17751,50000,10831,36891,0,61,28,0,0.00,0.05,0.02,0.00
2016-07-30 11:40:00,0,50000,0,0.00,0,0,0,0,50000,50000,0,50000,0,0,0,0,0.00,0.00,0.00,0.00
2016-07-30 11:50:00,0,50000,0,0.00,0,0,0,0,50000,50000,0,50000,0,0,0,0,0.00,0.00,0.00,0.00
2016-07-30 12:00:00,0,50000,0,0.00,0,0,0,0,50000,50000,0,50000,0,0,0,0,0.00,0.00,0.00,0.00
2016-07-30 12:10:00,0,50000,0,0.00,0,0,0,0,50000,50000,0,50000,0,0,0,0,0.00,0.00,0.00,0.00
2016-07-30 12:20:00,0,47154,0,0.00,0,0,0,0,21539,50000,8538,50000,0,0,0,0,0.00,0.00,0.00,0.00
2016-07-30 12:30:00,0,42858,55,1.28,0,0,0,0,16317,50000,10423,47928,0,61,18,61,0.00,3.55,1.23,0.82
2016-07-30 12:40:00,0,42190,21,0.02,0,0,0,0,25436,50000,10408,49772,0,61,26,0,0.00,0.10,0.03,0.00
2016-07-30 12:50:00,0,21266,48,1.01,0,0,0,0,12423,37894,7923,18653,0,61,24,61,0.00,3.00,0.95,0.65
2016-07-30 13:00:00,0,17268,56,1.89,0,0,0,0,14653,22847,2065,16732,52,61,4,56,0.30,4.60,1.35,1.40
2016-07-30 13:10:00,0,12905,61,6.73,0,0,0,0,8619,20994,3333,12104,61,61,0,61,3.40,9.55,1.87,7.25
2016-07-30 13:20:00,0,14350,61,5.94,0,0,0,0,11877,16814,1241,14260,61,61,0,61,3.55,9.50,2.16,5.42
2016-07-30 13:30:00,0,12138,61,5.37,0,0,0,0,8750,16332,2339,11767,61,62,0,61,1.60,10.60,2.59,6.05
2016-07-30 13:40:00,0,30867,60,2.48,0,0,0,0,17049,50000,11683,25544,52,61,3,61,0.10,5.45,2.04,2.47
2016-07-30 13:50:00,0,50000,20,0.02,0,0,0,0,50000,50000,0,50000,0,51,25,0,0.00,0.10,0.03,0.00
2016-07-30 14:00:00,0,49411,22,0.13,0,0,0,0,45833,50000,1298,50000,0,61,28,0,0.00,0.55,0.19,0.00
2016-07-30 14:10:00,0,49979,51,0.32,0,0,0,0,49786,50000,64,50000,51,51,0,51,0.00,0.75,0.27,0.22
2016-07-30 14:20:00,0,50000,37,0.07,0,0,0,0,50000,50000,0,50000,0,61,24,51,0.00,0.40,0.12,0.00
2016-07-30 14:30:00,0,50000,0,0.00,0,0,0,0,50000,50000,0,50000,0,0,0,0,0.00,0.00,0.00,0.00
2016-07-30 14:40:00,0,50000,0,0.00,0,0,0,0,50000,50000,0,50000,0,0,0,0,0.00,0.00,0.00,0.00
2016-07-30 14:50:00,0,21902,0,0.00,0,0,0,0,5086,50000,16185,16362,0,0,0,0,0.00,0.00,0.00,0.00
2016-07-30 15:00:00,0,9198,9,0.00,0,0,0,0,5001,17628,3985,8326,0,10,3,10,0.00,0.00,0.00,0.00
2016-07-30 15:10:00,0,35216,6,0.00,0,0,0,0,9754,50000,15847,41636,0,10,5,10,0.00,0.00,0.00,0.00
2016-07-30 15:20:00,0,50000,0,0.00,0,0,0,0,50000,50000,0,50000,0,0,0,0,0.00,0.00,0.00,0.00
2016-07-30 15:30:00,0,50000,0,0.00,0,0,0,0,50000,50000,0,50000,0,0,0,0,0.00,0.00,0.00,0.00
2016-07-30 15:40:00,0,49949,0,0.00,0,0,0,0,49489,50000,153,50000,0,0,0,0,0.00,0.00,0.00,0.00
2016-07-30 15:50:00,0,50000,0,0.00,0,0,0,0,50000,50000,0,50000,0,0,0,0,0.00,0.00,0.00,0.00
2016-07-30 16:00:00,0,49836,0,0.00,0,0,0,0,48365,50000,490,50000,0,0,0,0,0.00,0.00,0.00,0.00
2016-07-30 16:10:00,0,50000,0,0.00,0,0,0,0,50000,50000,0,50000,0,0,0,0,0.00,0.00,0.00,0.00
2016-07-30 16:20:00,0,50000,0,0.00,0,0,0,0,50000,50000,0,50000,0,0,0,0,0.00,0.00,0.00,0.00
2016-07-30 16:30:00,0,50000,0,0.00,0,0,0,0,50000,50000,0,50000,0,0,0,0,0.00,0.00,0.00,0.00
2016-07-30 16:40:00,0,50000,0,0.00,0,0,0,0,50000,50000,0,50000,0,0,0,0,0.00,0.00,0.00,0.00
2016-07-30 16:50:00,0,50000,0,0.00,0,0,0,0,50000,50000,0,50000,0,0,0,0,0.00,0.00,0.00,0.00
2016-07-30 17:00:00,0,50000,0,0.00,0,0,0,0,50000,50000,0,50000,0,0,0,0,0.00,0.00,0.00,0.00
2016-07-30 17:10:00,0,50000,0,0.00,0,0,0,0,50000,50000,0,50000,0,0,0,0,0.00,0.00,0.00,0.00
2016-07-30 17:20:00,0,50000,0,0.00,0,0,0,0,50000,50000,0,50000,0,0,0,0,0.00,0.00,0.00,0.00
2016-07-30 17:30:00,0,50000,0,0.00,0,0,0,0,50000,50000,0,50000,0,0,0,0,0.00,0.00,0.00,0.00
2016-07-30 17:40:00,0,50000,0,0.00,0,0,0,0,50000,50000,0,50000,0,0,0,0,0.00,0.00,0.00,0.00
2016-07-30 17:50:00,0,50000,0,0.00,0,0,0,0,50000,50000,0,50000,0,0,0,0,0.00,0.00,0.00,0.00
2016-07-30 18:00:00,0,50000,0,0.00,0,0,0,0,50000,50000,0,50000,0,0,0,0,0.00,0.00,0.00,0.00
2016-07-30 18:10:00,0,49577,0,0.00,0,0,0,0,45767,50000,1270,50000,0,0,0,0,0.00,0.00,0.00,0.00
2016-07-30 18:20:00,0,50000,0,0.00,0,0,0,0,50000,50000,0,50000,0,0,0,0,0.00,0.00,0.00,0.00
2016-07-30 18:30:00,0,50000,0,0.00,0,0,0,0,50000,50000,0,50000,0,0,0,0,0.00,0.00,0.00,0.00
2016-07-30 18:40:00,0,50000,0,0.00,0,0,0,0,50000,50000,0,50000,0,0,0,0,0.00,0.00,0.00,0.00
2016-07-30 18:50:00,0,50000,0,0.00,0,0,0,0,50000,50000,0,50000,0,0,0,0,0.00,0.00,0.00,0.00
2016-07-30 19:00:00,0,50000,0,0.00,0,0,0,0,50000,50000,0,50000,0,0,0,0,0.00,0.00,0.00,0.00
2016-07-30 19:10:00,0,50000,0,0.00,0,0,0,0,50000,50000,0,50000,0,0,0,0,0.00,0.00,0.00,0.00
2016-07-30 19:20:00,0,49541,0,0.00,0,0,0,0,45408,50000,1378,50000,0,0,0,0,0.00,0.00,0.00,0.00
2016-07-30 19:30:00,0,49397,0,0.00,0,0,0,0,43966,50000,1810,50000,0,0,0,0,0.00,0.00,0.00,0.00
2016-07-30 19:40:00,0,50000,0,0.00,0,0,0,0,50000,50000,0,50000,0,0,0,0,0.00,0.00,0.00,0.00
2016-07-30 19:50:00,0,49864,0,0.00,0,0,0,0,48638,50000,409,50000,0,0,0,0,0.00,0.00,0.00,0.00
2016-07-30 20:00:00,0,49651,0,0.00,0,0,0,0,47932,50000,712,50000,0,0,0,0,0.00,0.00,0.00,0.00
2016-07-30 20:10:00,0,49912,0,0.00,0,0,0,0,49120,50000,264,50000,0,0,0,0,0.00,0.00,0.00,0.00
2016-07-30 20:20:00,0,49977,0,0.00,0,0,0,0,49774,50000,68,50000,0,0,0,0,0.00,0.00,0.00,0.00
2016-07-30 20:30:00,0,48433,0,0.00,0,0,0,0,42490,50000,2641,50000,0,0,0,0,0.00,0.00,0.00,0.00
2016-07-30 20:40:00,0,49427,0,0.00,0,0,0,0,46559,50000,1125,50000,0,0,0,0,0.00,0.00,0.00,0.00
2016-07-30 20:50:00,0,49919,0,0.00,0,0,0,0,49190,50000,243,50000,0,0,0,0,0.00,0.00,0.00,0.00
2016-07-30 21:00:00,0,49394,0,0.00,0,0,0,0,46972,50000,1038,50000,0,0,0,0,0.00,0.00,0.00,0.00
2016-07-30 21:10:00,0,49885,0,0.00,0,0,0,0,48969,50000,307,50000,0,0,0,0,0.00,0.00,0.00,0.00
2016-07-30 21:20:00,0,50000,0,0.00,0,0,0,0,50000,50000,0,50000,0,0,0,0,0.00,0.00,0.00,0.00
2016-07-30 21:30:00,0,50000,0,0.00,0,0,0,0,50000,50000,0,50000,0,0,0,0,0.00,0.00,0.00,0.00
2016-07-30 21:40:00,0,49990,0,0.00,0,0,0,0,49899,50000,30,50000,0,0,0,0,0.00,0.00,0.00,0.00
2016-07-30 21:50:00,0,50000,0,0.00,0,0,0,0,50000,50000,0,50000,0,0,0,0,0.00,0.00,0.00,0.00
2016-07-30 22:00:00,0,49938,0,0.00,0,0,0,0,49376,50000,187,50000,0,0,0,0,0.00,0.00,0.00,0.00
2016-07-30 22:10:00,0,50000,0,0.00,0,0,0,0,50000,50000,0,50000,0,0,0,0,0.00,0.00,0.00,0.00
2016-07-30 22:20:00,1,46073,0,0.00,0,2,1,1,33538,50000,5429,48720,0,0,0,0,0.00,0.00,0.00,0.00
2016-07-30 22:30:00,0,46088,0,0.00,0,0,0,0,34302,50000,5095,48348,0,0,0,0,0.00,0.00,0.00,0.00
2016-07-30 22:40:00,0,49779,0,0.00,0,0,0,0,48508,50000,464,50000,0,0,0,0,0.00,0.00,0.00,0.00
2016-07-30 22:50:00,2,41590,0,0.00,0,2,1,2,28821,50000,6346,43350,0,0,0,0,0.00,0.00,0.00,0.00
2016-07-30 23:00:00,2,39755,0,0.00,2,2,0,2,27241,50000,6443,40920,0,0,0,0,0.00,0.00,0.00,0.00
2016-07-30 23:10:00,2,42176,0,0.00,2,2,0,2,31040,50000,6687,42604,0,0,0,0,0.00,0.00,0.00,0.00
2016-07-30 23:20:00,1,45554,0,0.00,0,2,1,2,40650,50000,3535,46063,0,0,0,0,0.00,0.00,0.00,0.00
2016-07-30 23:30:00,2,43384,0,0.00,2,2,0,2,33750,50000,6377,44127,0,0,0,0,0.00,0.00,0.00,0.00
2016-07-30 23:40:00,2,45158,0,0.00,2,2,0,2,36517,50000,5109,46862,0,0,0,0,0.00,0.00,0.00,0.00
2016-07-30 23:50:00,2,39297,0,0.00,0,2,1,2,29791,50000,8422,35192,0,0,0,0,0.00,0.00,0.00,0.00
